Regional Weather Roundup
Issued by NWS

Home | Current Version | Previous Version | Graphics & Text | Print | Product List | Glossary Off
Versions: 1 2 3 4 5 6 7 8 9 10 11 12 13 14 15 16 17 18 19 20 21 22 23 24 25 26 27 28 29 30 31 32 33 34 35 36 37 38 39 40 41 42 43 44 45 46 47 48 49 50

578
ASUS43 KDMX 290806
RWRIA

WEATHER ROUNDUP FOR IOWA
NATIONAL WEATHER SERVICE DES MOINES IA
300 AM CDT WED MAR 29 2017

NOTE: "FAIR" INDICATES FEW OR NO CLOUDS BELOW 12,000 FEET WITH NO
SIGNIFICANT WEATHER AND/OR OBSTRUCTIONS TO VISIBILITY.

* - THESE STATIONS ARE NOT NWS STATIONS...THUS NOT UNDER NWS
QUALITY CONTROL.  THEY ALSO DO NOT REPORT WEATHER SUCH
AS PRECIPITATION OR FOG.

IAZ001>003-012>014-020>022-031>034-043>046-290900-
   NORTHWEST IOWA

CITY           SKY/WX    TMP DP  RH WIND       PRES   REMARKS
CARROLL *      CLOUDY    45  43  93 NE7       30.11F
CHEROKEE *     CLOUDY    44  42  94 NE5       30.14F
DENISON *      CLOUDY    45  43  93 NE7       30.12F
LE MARS *      CLOUDY    46  43  87 NE5       30.14F
ORANGE CITY *  CLOUDY    45  43  93 E3        30.14F
SHELDON *      MOCLDY    39  37  93 E5        30.14R
SIOUX CITY     LGT RAIN  46  43  89 E8        30.12F
SPENCER        CLOUDY    41  39  93 NE5       30.16R
STORM LAKE *   CLOUDY    43  41  93 NE7       30.13F
$$

IAZ055>058-069>071-079>083-090>094-290900-
   SOUTHWEST IOWA

CITY           SKY/WX    TMP DP  RH WIND       PRES   REMARKS
ATLANTIC *     DRIZZLE   46  45  93 NE7       30.07F
AUDUBON *      CLOUDY    46  43  87 E5        30.11F
CLARINDA *     CLOUDY    48  46  93 NE9       30.07S
COUNCIL BLFS * CLOUDY    46  46 100 NE10      30.06F
CRESTON *      CLOUDY    46  46 100 E12       30.07F
HARLAN  *      CLOUDY    46  46 100 NE8       30.12F FOG
LAMONI         CLOUDY    48  45  89 E8        30.05F
RED OAK *      LGT RAIN  46  45  93 NE9       30.06F
SHENANDOAH *   CLOUDY    48  45  87 NE9G15    30.05F
$$

IAZ047>049-059>061-072>074-084-290900-
   CENTRAL IOWA

CITY           SKY/WX    TMP DP  RH WIND       PRES   REMARKS
AMES           CLOUDY    45  43  93 E6        30.13R
ANKENY *       CLOUDY    46  43  87 E8        30.12S
BOONE *        CLOUDY    43  43 100 E8        30.12R
CHARITON *     CLOUDY    46  45  93 E13       30.06F
DES MOINES     CLOUDY    48  42  80 E9        30.10F
GRINNELL*      MOCLDY    42  39  89 E8        30.14R
MARSHALLTOWN   MOCLDY    42  40  92 E9        30.13S
NEWTON *       MOCLDY    43  39  87 E10       30.12R
PELLA *        PTCLDY    43  41  90 E8        30.12S
$$

IAZ004>006-015-016-023>025-035-036-290900-
   NORTH CENTRAL IOWA

CITY           SKY/WX    TMP DP  RH WIND       PRES   REMARKS
ALGONA *       CLOUDY    43  43 100 CALM      30.17R
CLARION *      CLOUDY    43  43 100 N3        30.16R
ESTHERVILLE    CLOUDY    39  38  96 CALM      30.16R
FORT DODGE *   CLOUDY    45  39  81 NE6       30.15S
MASON CITY     CLOUDY    40  37  89 NE5       30.17S
FOREST CITY *    N/A     41  37  87 CALM      30.16S
WEBSTER CITY * CLOUDY    45  41  87 E7        30.13R
IOWA FALLS *   MOCLDY    43  40  89 E5        30.16R
$$

IAZ007>011-017>019-026>030-037>042-050>054-066-290900-
   NORTHEAST IOWA

CITY           SKY/WX    TMP DP  RH WIND       PRES   REMARKS
CEDAR RAPIDS   MOCLDY    40  39  97 E8        30.13F WCI  34
CHARLES CITY * CLOUDY    39  39 100 NE8       30.17S WCI  34
CLINTON *      CLOUDY    40  38  93 E13       30.19F WCI  32
DECORAH *      CLOUDY    43  37  81 E7        30.18S
DUBUQUE        PTCLDY    39  36  89 E10       30.18S WCI  32
MONTICELLO *   CLOUDY    39  37  93 E7        30.16F WCI  34
OELWEIN *      PTCLDY    37  37 100 E7        30.16F WCI  32
WATERLOO       MOCLDY    39  37  92 E6        30.15F WCI  35
$$

IAZ064-065-067-068-078-290900-
   EAST CENTRAL IOWA

CITY           SKY/WX    TMP DP  RH WIND       PRES   REMARKS
DAVENPORT      CLOUDY    40  37  89 E16       30.17F WCI  31
IOWA CITY      CLOUDY    42  39  89 NE5       30.16S
MUSCATINE *    MOCLDY    43  41  93 E6        30.15F
QUAD CITIES    CLOUDY    41  37  86 E14       30.16F
$$

IAZ062-063-075>077-085>089-095>099-290900-
   SOUTHEAST IOWA

CITY           SKY/WX    TMP DP  RH WIND       PRES   REMARKS
BURLINGTON     MOCLDY    43  40  89 E8        30.13F
FAIRFIELD *    CLOUDY    41  39  93 E8        30.12S
FORT MADISON * MOCLDY    43  41  93 E7        30.13S
KEOKUK *       CLOUDY    46  43  87 E10       30.10F
OSKALOOSA *      N/A     41  40  94 NE9       30.11F
CENTERVILLE *  CLOUDY    46  45  93 E10       30.08F
OTTUMWA        MOCLDY    44  42  93 E12       30.10F
WASHINGTON *   CLOUDY    41  41 100 E8        30.15S
$$

ABBREVIATIONS USED IN REMARKS
   TC - TEMPERATURES IN CELSIUS
  WCI - WIND CHILL INDEX
   HX - HEAT INDEX
  VSB - VISIBILITY
$$





USA.gov is the U.S. government's official web portal to all federal, state and local government web resources and services.